Skip Page Navigation
NASA JPL Caltech
NASA Logo - Jet Propulsion Laboratory + View the NASA Portal
+ Center for Near-Earth Object Studies
JPL Home Earth Solar System Stars & Galaxies Technology
JPL Solar System Dynamics
BODIES ORBITS EPHEMERIDES TOOLS PHYSICAL DATA DISCOVERY FAQ SITE MAP
IMPORTANT: The SSD Announcement email list is now available. Major changes are coming in the near future, including possible hostname and/or URL changes. To be notified of such changes, subscribe to this email list.

Please visit this page for more details.


JPL Small-Body Database Browser
Search: [ help ]  
382656 (2002 SW67)
Classification: Main-belt Asteroid          SPK-ID: 2382656
Ephemeris | Orbit Diagram | Orbital Elements | Mission Design | Physical Parameters | Discovery Circumstances | Close-Approach Data ]

[ show orbit diagram ]
Orbital Elements at Epoch 2458600.5 (2019-Apr-27.0) TDB
Reference: JPL 10 (heliocentric ecliptic J2000)
 Element Value Uncertainty (1-sigma)   Units 
e .2390949407179288 1.7661e-07  
a 3.011674506271636 2.6974e-08 au
q 2.291598368732922 5.2181e-07 au
i 1.685739409383379 8.9716e-06 deg
node 158.1254909949426 0.00046998 deg
peri 237.8828142136867 0.00048678 deg
M 38.74280227689429 7.0435e-05 deg
tp 2458395.053377818617
(2018-Oct-03.55337782)
0.00037457 TDB
period 1909.019989227962
5.23
2.5647e-05
7.022e-08
d
yr
n .1885784339773151 2.5335e-09 deg/d
Q 3.73175064381035 3.3423e-08 au
  Orbit Determination Parameters
   # obs. used (total)      113  
   data-arc span      5931 days (16.24 yr)  
   first obs. used      2002-09-17  
   last obs. used      2018-12-13  
   planetary ephem.      DE431  
   SB-pert. ephem.      SB431-N16  
   condition code      0  
   norm. resid. RMS      .64845  
   source      ORB  
   producer      Otto Matic  
   solution date      2019-Jul-13 15:04:45  

Additional Information
 Earth MOID = 1.29854 au 
 Jupiter MOID = 1.69956 au 
 T_jup = 3.205 
[ show covariance matrix ]

Ephemeris | Orbit Diagram | Orbital Elements | Mission Design | Physical Parameters | Discovery Circumstances | Close-Approach Data ]

Physical Parameter Table
Parameter Symbol Value Units Sigma Reference Notes
absolute magnitude H 16.8   n/a MPO288363  

382656 (2002 SW67)          Discovered 2002-Sep-26 by NEAT at Palomar
Reference: Last Updated: 2014-01-21

[ show close-approach data ]
Ephemeris | Orbit Diagram | Orbital Elements | Mission Design | Physical Parameters | Discovery Circumstances | Close-Approach Data ]
ABOUT SSD CREDITS/AWARDS PRIVACY/COPYRIGHT GLOSSARY LINKS
FirstGov
(server date/time)  
NASA Home Page
Site Manager:   Ryan S. Park
Webmaster  Alan B. Chamberlin